When you browse on this site, cookies collect data to enhance your experience and personalize the content and advertising you see.
Visit our Privacy Policy to learn more. By continuing to use the site, you agree to this use of cookies and data.
  • In Deutschland
  • Länderverzeichnis
  • Für 7 Tage
  • Wassertemperatur
  • Satellitenkarten
  • Wetterkarte
  • Widgets
  • user-avatar
    Anmelden

    Stündliche Wetter Rudolstadt

    Heute, 17 Februar, Sonntag

    Zeit Temperatur Niederschläge Wind Luftdruck Luftfeuchtigkeit
    00:00 +5°C° 0 mm 2 m/S 749 mmHg 80%
    01:00 +5°C° 0 mm 2 m/S 749 mmHg 81%
    02:00 +4°C° 0 mm 2 m/S 749 mmHg 81%
    03:00 +4°C° 0 mm 2 m/S 749 mmHg 81%
    04:00 +4°C° 0 mm 2 m/S 749 mmHg 81%
    05:00 +4°C° 0 mm 2 m/S 749 mmHg 80%
    06:00 +4°C° 0 mm 2 m/S 749 mmHg 80%
    07:00 +4°C° 0 mm 2 m/S 749 mmHg 79%
    08:00 +5°C° 0 mm 2 m/S 749 mmHg 75%
    09:00 +7°C° 0 mm 2 m/S 749 mmHg 71%
    10:00 +8°C° 0 mm 2 m/S 749 mmHg 67%
    11:00 +10°C° 0 mm 2 m/S 749 mmHg 63%
    12:00 +12°C° 0 mm 2 m/S 748 mmHg 60%
    13:00 +13°C° 0 mm 3 m/S 748 mmHg 57%
    14:00 +13°C° 0 mm 2 m/S 748 mmHg 58%
    15:00 +13°C° 0 mm 2 m/S 747 mmHg 60%
    16:00 +13°C° 0 mm 2 m/S 747 mmHg 61%
    17:00 +10°C° 0 mm 2 m/S 747 mmHg 66%
    18:00 +8°C° 0 mm 2 m/S 747 mmHg 71%
    19:00 +6°C° 0 mm 2 m/S 747 mmHg 76%
    20:00 +6°C° 0 mm 2 m/S 747 mmHg 77%
    21:00 +5°C° 0 mm 3 m/S 747 mmHg 77%
    22:00 +4°C° 0 mm 3 m/S 747 mmHg 77%
    23:00 +4°C° 0 mm 3 m/S 747 mmHg 77%

    Morgen, 18 Februar, Montag

    Zeit Temperatur Niederschläge Wind Luftdruck Luftfeuchtigkeit
    00:00 +4°C° 0 mm 3 m/S 747 mmHg 77%
    01:00 +3°C° 0 mm 3 m/S 747 mmHg 77%
    02:00 +4°C° 0 mm 2 m/S 746 mmHg 77%
    03:00 +4°C° 0 mm 2 m/S 746 mmHg 76%
    04:00 +4°C° 0 mm 2 m/S 746 mmHg 76%
    05:00 +3°C° 0 mm 2 m/S 746 mmHg 76%
    06:00 +3°C° 0 mm 2 m/S 746 mmHg 76%
    07:00 +3°C° 0 mm 2 m/S 746 mmHg 76%
    08:00 +5°C° 0 mm 2 m/S 746 mmHg 72%
    09:00 +5°C° 0 mm 3 m/S 746 mmHg 67%
    10:00 +8°C° 0 mm 3 m/S 746 mmHg 63%
    11:00 +9°C° 0 mm 3 m/S 746 mmHg 61%
    12:00 +11°C° 0 mm 3 m/S 746 mmHg 58%
    13:00 +12°C° 0 mm 3 m/S 745 mmHg 55%
    14:00 +12°C° 0 mm 3 m/S 745 mmHg 57%
    15:00 +11°C° 0 mm 3 m/S 744 mmHg 59%
    16:00 +12°C° 0 mm 2 m/S 744 mmHg 61%
    17:00 +9°C° 0 mm 2 m/S 744 mmHg 66%
    18:00 +8°C° 0 mm 2 m/S 744 mmHg 72%
    19:00 +6°C° 0 mm 2 m/S 744 mmHg 78%
    20:00 +6°C° 0 mm 2 m/S 744 mmHg 77%
    21:00 +5°C° 0 mm 2 m/S 744 mmHg 77%
    22:00 +5°C° 0 mm 2 m/S 744 mmHg 77%
    23:00 +5°C° 0 mm 2 m/S 744 mmHg 77%

    übermorgen, 19 Februar, Dienstag

    Zeit Temperatur Niederschläge Wind Luftdruck Luftfeuchtigkeit
    00:00 +4°C° 0 mm 3 m/S 744 mmHg 78%
    01:00 +3°C° 0 mm 3 m/S 744 mmHg 78%
    02:00 +3°C° 0 mm 3 m/S 744 mmHg 79%
    03:00 +3°C° 0 mm 3 m/S 744 mmHg 79%
    04:00 +3°C° 0 mm 3 m/S 743 mmHg 80%
    05:00 +3°C° 0 mm 3 m/S 743 mmHg 81%
    06:00 +2°C° 0 mm 3 m/S 743 mmHg 82%
    07:00 +2°C° 0 mm 3 m/S 743 mmHg 82%
    08:00 +4°C° 0 mm 4 m/S 744 mmHg 79%
    09:00 +5°C° 0 mm 4 m/S 744 mmHg 76%
    10:00 +6°C° 0 mm 4 m/S 744 mmHg 73%
    11:00 +7°C° 0 mm 5 m/S 744 mmHg 73%
    12:00 +8°C° 0 mm 5 m/S 744 mmHg 72%
    13:00 +9°C° 0 mm 5 m/S 744 mmHg 72%
    14:00 +8°C° 0.2 mm 5 m/S 744 mmHg 75%
    15:00 +7°C° 0.2 mm 4 m/S 744 mmHg 79%
    16:00 +7°C° 0.2 mm 3 m/S 744 mmHg 82%
    17:00 +5°C° 0 mm 3 m/S 744 mmHg 85%
    18:00 +6°C° 0 mm 2 m/S 745 mmHg 88%
    19:00 +5°C° 0 mm 2 m/S 745 mmHg 91%
    20:00 +4°C° 0 mm 2 m/S 745 mmHg 92%
    21:00 +4°C° 0 mm 2 m/S 746 mmHg 92%
    22:00 +4°C° 0 mm 2 m/S 746 mmHg 93%
    23:00 +4°C° 0 mm 2 m/S 746 mmHg 93%

    20 Februar, Mittwoch

    Zeit Temperatur Niederschläge Wind Luftdruck Luftfeuchtigkeit
    00:00 +3°C° 0 mm 2 m/S 747 mmHg 94%
    01:00 +3°C° 0 mm 2 m/S 747 mmHg 94%
    02:00 +2°C° 0 mm 2 m/S 747 mmHg 94%
    03:00 +2°C° 0 mm 2 m/S 747 mmHg 93%
    04:00 +2°C° 0 mm 2 m/S 747 mmHg 93%
    05:00 +2°C° 0 mm 2 m/S 747 mmHg 93%
    06:00 +2°C° 0 mm 2 m/S 747 mmHg 93%
    07:00 +2°C° 0 mm 2 m/S 747 mmHg 93%
    08:00 +3°C° 0 mm 2 m/S 748 mmHg 88%
    09:00 +3°C° 0 mm 3 m/S 748 mmHg 82%
    10:00 +5°C° 0 mm 3 m/S 748 mmHg 77%
    11:00 +7°C° 0 mm 3 m/S 748 mmHg 72%
    12:00 +7°C° 0 mm 4 m/S 748 mmHg 68%
    13:00 +8°C° 0 mm 4 m/S 748 mmHg 63%
    14:00 +8°C° 0 mm 4 m/S 748 mmHg 64%
    15:00 +9°C° 0 mm 3 m/S 747 mmHg 65%
    16:00 +9°C° 0 mm 3 m/S 747 mmHg 67%
    17:00 +7°C° 0 mm 3 m/S 747 mmHg 73%
    18:00 +6°C° 0 mm 2 m/S 748 mmHg 79%
    19:00 +5°C° 0 mm 2 m/S 748 mmHg 85%
    20:00 +5°C° 0 mm 2 m/S 748 mmHg 85%
    21:00 +5°C° 0 mm 2 m/S 748 mmHg 85%
    22:00 +5°C° 0 mm 2 m/S 748 mmHg 85%
    23:00 +5°C° 0 mm 2 m/S 748 mmHg 86%

    21 Februar, Donnerstag

    Zeit Temperatur Niederschläge Wind Luftdruck Luftfeuchtigkeit
    00:00 +4°C° 0 mm 3 m/S 748 mmHg 87%
    01:00 +4°C° 0 mm 3 m/S 748 mmHg 88%
    02:00 +4°C° 0 mm 3 m/S 748 mmHg 89%
    03:00 +4°C° 0 mm 3 m/S 748 mmHg 91%
    04:00 +4°C° 0 mm 3 m/S 748 mmHg 92%
    05:00 +4°C° 0 mm 3 m/S 748 mmHg 92%
    06:00 +4°C° 0 mm 3 m/S 748 mmHg 92%
    07:00 +4°C° 0 mm 3 m/S 748 mmHg 93%
    08:00 +5°C° 0 mm 4 m/S 748 mmHg 89%
    09:00 +6°C° 0 mm 4 m/S 748 mmHg 85%
    10:00 +7°C° 0 mm 4 m/S 749 mmHg 81%
    11:00 +7°C° 0.1 mm 4 m/S 749 mmHg 83%
    12:00 +6°C° 0.1 mm 4 m/S 749 mmHg 86%
    13:00 +7°C° 0.1 mm 3 m/S 749 mmHg 88%
    14:00 +8°C° 0 mm 3 m/S 749 mmHg 87%
    15:00 +8°C° 0 mm 3 m/S 749 mmHg 87%
    16:00 +8°C° 0 mm 3 m/S 749 mmHg 86%
    17:00 +8°C° 0.1 mm 3 m/S 749 mmHg 88%
    18:00 +8°C° 0.1 mm 2 m/S 749 mmHg 91%
    19:00 +7°C° 0.1 mm 2 m/S 750 mmHg 93%
    20:00 +7°C° 0 mm 2 m/S 750 mmHg 92%
    21:00 +7°C° 0 mm 2 m/S 750 mmHg 91%
    22:00 +7°C° 0 mm 2 m/S 750 mmHg 89%
    23:00 +6°C° 0 mm 2 m/S 751 mmHg 90%

    22 Februar, Freitag

    Zeit Temperatur Niederschläge Wind Luftdruck Luftfeuchtigkeit
    00:00 +5°C° 0 mm 2 m/S 751 mmHg 91%
    01:00 +5°C° 0 mm 2 m/S 751 mmHg 92%
    02:00 +4°C° 0 mm 2 m/S 751 mmHg 93%
    03:00 +4°C° 0 mm 2 m/S 751 mmHg 94%
    04:00 +4°C° 0 mm 2 m/S 751 mmHg 94%
    05:00 +4°C° 0 mm 2 m/S 751 mmHg 95%
    06:00 +5°C° 0 mm 2 m/S 752 mmHg 95%
    07:00 +6°C° 0 mm 2 m/S 752 mmHg 96%
    08:00 +6°C° 0 mm 2 m/S 752 mmHg 95%
    09:00 +7°C° 0 mm 2 m/S 753 mmHg 94%
    10:00 +7°C° 0 mm 2 m/S 753 mmHg 93%
    11:00 +8°C° 0.1 mm 2 m/S 753 mmHg 91%
    12:00 +8°C° 0.1 mm 2 m/S 753 mmHg 88%
    13:00 +8°C° 0.1 mm 2 m/S 754 mmHg 85%
    14:00 +8°C° 0 mm 2 m/S 754 mmHg 83%
    15:00 +8°C° 0 mm 3 m/S 754 mmHg 80%
    16:00 +8°C° 0 mm 3 m/S 754 mmHg 77%
    17:00 +7°C° 0 mm 3 m/S 754 mmHg 81%
    18:00 +6°C° 0 mm 2 m/S 755 mmHg 84%
    19:00 +6°C° 0 mm 2 m/S 755 mmHg 88%
    20:00 +5°C° 0 mm 2 m/S 756 mmHg 89%
    21:00 +4°C° 0 mm 3 m/S 756 mmHg 90%
    22:00 +3°C° 0 mm 3 m/S 756 mmHg 91%
    23:00 +3°C° 0 mm 3 m/S 757 mmHg 91%
    Mehr zeigen